| time (UTC) | temp F | wind direction | speed MPH | gust MPH | rain 1hr in | rain 24hr in | rain mn in | humidity % | barometer mb |
| 20260503014030 | 58 | 179 | 1.0 | 3.0 | 0.00 | 0.00 | 0.00 | 46 | 1009.9 |
| 20260503013531 | 58 | 172 | 0.0 | 2.0 | 0.00 | 0.00 | 0.00 | 46 | 1009.9 |
| 20260503013030 | 59 | 174 | 0.0 | 2.0 | 0.00 | 0.00 | 0.00 | 46 | 1010.0 |
| 20260503012530 | 59 | 160 | 0.0 | 2.0 | 0.00 | 0.00 | 0.00 | 45 | 1010.1 |
| 20260503012028 | 59 | 179 | 0.0 | 2.0 | 0.00 | 0.00 | 0.00 | 45 | 1010.1 |
| 20260503011528 | 59 | 221 | 1.0 | 5.0 | 0.00 | 0.00 | 0.00 | 44 | 1010.1 |
| 20260503011027 | 59 | 240 | 2.0 | 9.0 | 0.00 | 0.00 | 0.00 | 44 | 1010.3 |
| 20260503010530 | 60 | 253 | 3.0 | 10.0 | 0.00 | 0.00 | 0.00 | 44 | 1010.4 |
| 20260503010029 | 59 | 261 | 5.0 | 10.0 | 0.00 | 0.00 | 0.00 | 45 | 1010.4 |
| 20260503005526 | 60 | 278 | 4.0 | 15.0 | 0.00 | 0.00 | 0.00 | 46 | 1010.5 |
| 20260503005028 | 60 | 278 | 10.0 | 21.0 | 0.00 | 0.00 | 0.00 | 46 | 1010.7 |
| 20260503004523 | 60 | 287 | 10.0 | 21.0 | 0.00 | 0.00 | 0.00 | 44 | 1010.9 |
| 20260503004023 | 60 | 290 | 11.0 | 20.0 | 0.00 | 0.00 | 0.00 | 43 | 1011.2 |
| 20260503003523 | 61 | 284 | 11.0 | 21.0 | 0.00 | 0.00 | 0.00 | 42 | 1011.3 |
| 20260503003023 | 61 | 290 | 9.0 | 21.0 | 0.00 | 0.00 | 0.00 | 42 | 1011.2 |
| 20260503002523 | 61 | 288 | 15.0 | 22.0 | 0.00 | 0.00 | 0.00 | 41 | 1011.1 |
| 20260503002023 | 62 | 288 | 15.0 | 23.0 | 0.00 | 0.00 | 0.00 | 37 | 1011.1 |
| 20260503001523 | 62 | 295 | 12.0 | 23.0 | 0.00 | 0.00 | 0.00 | 36 | 1011.2 |
| 20260503001022 | 62 | 287 | 12.0 | 21.0 | 0.00 | 0.00 | 0.00 | 36 | 1011.1 |
| 20260503000522 | 62 | 283 | 7.0 | 18.0 | 0.00 | 0.00 | 0.00 | 35 | 1011.0 |
| 20260503000022 | 63 | 284 | 8.0 | 20.0 | 0.00 | 0.00 | 0.00 | 36 | 1011.1 |
| 20260502235521 | 63 | 266 | 10.0 | 39.0 | 0.00 | 0.00 | 0.00 | 33 | 1011.1 |
| 20260502235022 | 63 | 248 | 16.0 | 39.0 | 0.00 | 0.00 | 0.00 | 35 | 1011.1 |
| 20260502234525 | 63 | 285 | 9.0 | 16.0 | 0.00 | 0.00 | 0.00 | 37 | 1011.1 |
| 20260502234120 | 63 | 290 | 6.0 | 14.0 | 0.00 | 0.00 | 0.00 | 36 | 1011.1 |
| 20260502233519 | 63 | 290 | 6.0 | 16.0 | 0.00 | 0.00 | 0.00 | 33 | 1011.0 |
| 20260502233020 | 63 | 285 | 11.0 | 16.0 | 0.00 | 0.00 | 0.00 | 34 | 1011.1 |
| 20260502232518 | 63 | 278 | 8.0 | 38.0 | 0.00 | 0.00 | 0.00 | 35 | 1011.1 |
| 20260502232018 | 63 | 270 | 10.0 | 38.0 | 0.00 | 0.00 | 0.00 | 33 | 1011.1 |
| 20260502231523 | 64 | 248 | 7.0 | 26.0 | 0.00 | 0.00 | 0.00 | 33 | 1011.2 |
| 20260502231018 | 64 | 274 | 5.0 | 26.0 | 0.00 | 0.00 | 0.00 | 32 | 1011.2 |
| 20260502230517 | 64 | 325 | 5.0 | 18.0 | 0.00 | 0.00 | 0.00 | 34 | 1011.2 |
| 20260502230019 | 64 | 294 | 10.0 | 31.0 | 0.00 | 0.00 | 0.00 | 33 | 1011.1 |
| 20260502225519 | 64 | 240 | 20.0 | 31.0 | 0.00 | 0.00 | 0.00 | 35 | 1011.2 |
| 20260502225016 | 64 | 294 | 13.0 | 21.0 | 0.00 | 0.00 | 0.00 | 33 | 1011.2 |
| 20260502224514 | 64 | 308 | 10.0 | 20.0 | 0.00 | 0.00 | 0.00 | 32 | 1011.2 |
| 20260502224014 | 64 | 281 | 13.0 | 20.0 | 0.00 | 0.00 | 0.00 | 34 | 1011.1 |
| 20260502223515 | 64 | 298 | 12.0 | 18.0 | 0.00 | 0.00 | 0.00 | 35 | 1011.2 |
| 20260502223012 | 65 | 302 | 10.0 | 15.0 | 0.00 | 0.00 | 0.00 | 34 | 1011.2 |
| 20260502222512 | 65 | 266 | 8.0 | 18.0 | 0.00 | 0.00 | 0.00 | 33 | 1011.2 |
| 20260502222010 | 65 | 250 | 12.0 | 18.0 | 0.00 | 0.00 | 0.00 | 33 | 1011.2 |
| 20260502221510 | 65 | 294 | 6.0 | 15.0 | 0.00 | 0.00 | 0.00 | 35 | 1011.3 |
| 20260502221011 | 65 | 291 | 6.0 | 18.0 | 0.00 | 0.00 | 0.00 | 36 | 1011.3 |
| 20260502220509 | 64 | 284 | 9.0 | 15.0 | 0.00 | 0.00 | 0.00 | 36 | 1011.3 |
| 20260502220012 | 64 | 262 | 7.0 | 14.0 | 0.00 | 0.00 | 0.00 | 35 | 1011.4 |
| 20260502215508 | 65 | 287 | 10.0 | 16.0 | 0.00 | 0.00 | 0.00 | 36 | 1011.4 |
| 20260502215007 | 65 | 275 | 10.0 | 15.0 | 0.00 | 0.00 | 0.00 | 36 | 1011.4 |
| 20260502214517 | 65 | 292 | 9.0 | 14.0 | 0.00 | 0.00 | 0.00 | 37 | 1011.5 |
| 20260502214006 | 64 | 280 | 7.0 | 17.0 | 0.00 | 0.00 | 0.00 | 35 | 1011.6 |
| 20260502213505 | 64 | 299 | 10.0 | 24.0 | 0.00 | 0.00 | 0.00 | 35 | 1011.6 |
| 20260502213005 | 64 | 262 | 10.0 | 24.0 | 0.00 | 0.00 | 0.00 | 36 | 1011.8 |
| 20260502212505 | 65 | 255 | 15.0 | 22.0 | 0.00 | 0.00 | 0.00 | 35 | 1011.7 |
| 20260502212003 | 65 | 262 | 14.0 | 20.0 | 0.00 | 0.00 | 0.00 | 34 | 1011.8 |
| 20260502211507 | 65 | 264 | 9.0 | 25.0 | 0.00 | 0.00 | 0.00 | 35 | 1012.1 |
| 20260502211001 | 65 | 275 | 15.0 | 25.0 | 0.00 | 0.00 | 0.00 | 35 | 1012.0 |
| 20260502210500 | 64 | 267 | 10.0 | 19.0 | 0.00 | 0.00 | 0.00 | 34 | 1012.2 |
| 20260502210059 | 65 | 271 | 13.0 | 20.0 | 0.00 | 0.00 | 0.00 | 36 | 1012.3 |
| 20260502205557 | 64 | 263 | 11.0 | 23.0 | 0.00 | 0.00 | 0.00 | 34 | 1012.4 |
| 20260502205057 | 64 | 281 | 11.0 | 25.0 | 0.00 | 0.00 | 0.00 | 35 | 1012.6 |
| 20260502204607 | 64 | 282 | 14.0 | 25.0 | 0.00 | 0.00 | 0.00 | 35 | 1012.6 |
| 20260502204057 | 64 | 311 | 11.0 | 23.0 | 0.00 | 0.00 | 0.00 | 33 | 1012.7 |
| 20260502203553 | 64 | 275 | 13.0 | 24.0 | 0.00 | 0.00 | 0.00 | 34 | 1012.9 |
| 20260502203053 | 64 | 294 | 17.0 | 24.0 | 0.00 | 0.00 | 0.00 | 33 | 1013.0 |
| 20260502202551 | 64 | 267 | 13.0 | 25.0 | 0.00 | 0.00 | 0.00 | 34 | 1013.0 |
| 20260502202052 | 64 | 267 | 14.0 | 24.0 | 0.00 | 0.00 | 0.00 | 35 | 1013.1 |
| 20260502201551 | 64 | 261 | 10.0 | 22.0 | 0.00 | 0.00 | 0.00 | 36 | 1013.3 |
| 20260502201049 | 63 | 284 | 8.0 | 22.0 | 0.00 | 0.00 | 0.00 | 35 | 1013.5 |
| 20260502200548 | 64 | 264 | 13.0 | 22.0 | 0.00 | 0.00 | 0.00 | 35 | 1013.5 |
| 20260502200048 | 64 | 290 | 14.0 | 22.0 | 0.00 | 0.00 | 0.00 | 34 | 1013.6 |
| 20260502195547 | 64 | 277 | 12.0 | 21.0 | 0.00 | 0.00 | 0.00 | 34 | 1013.8 |
| 20260502195048 | 63 | 278 | 13.0 | 21.0 | 0.00 | 0.00 | 0.00 | 36 | 1013.9 |
| 20260502194544 | 63 | 276 | 10.0 | 19.0 | 0.00 | 0.00 | 0.00 | 35 | 1013.9 |
| 20260502194045 | 63 | 281 | 9.0 | 18.0 | 0.00 | 0.00 | 0.00 | 35 | 1014.0 |
| 20260502193543 | 63 | 277 | 7.0 | 24.0 | 0.00 | 0.00 | 0.00 | 36 | 1014.2 |
| 20260502193049 | 62 | 292 | 13.0 | 24.0 | 0.00 | 0.00 | 0.00 | 35 | 1014.2 |
| 20260502192543 | 63 | 295 | 12.0 | 21.0 | 0.00 | 0.00 | 0.00 | 35 | 1014.3 |
| 20260502192040 | 63 | 257 | 12.0 | 18.0 | 0.00 | 0.00 | 0.00 | 36 | 1014.2 |
| 20260502191544 | 62 | 278 | 7.0 | 21.0 | 0.00 | 0.00 | 0.00 | 37 | 1014.5 |
| 20260502191037 | 62 | 288 | 12.0 | 21.0 | 0.00 | 0.00 | 0.00 | 36 | 1014.6 |
| 20260502190537 | 61 | 284 | 11.0 | 18.0 | 0.00 | 0.00 | 0.00 | 36 | 1014.7 |
| 20260502190035 | 61 | 278 | 10.0 | 18.0 | 0.00 | 0.00 | 0.00 | 37 | 1014.9 |
| 20260502185533 | 61 | 258 | 9.0 | 16.0 | 0.00 | 0.00 | 0.00 | 39 | 1014.9 |
| 20260502185032 | 60 | 274 | 9.0 | 17.0 | 0.00 | 0.00 | 0.00 | 37 | 1015.1 |
| 20260502184535 | 60 | 273 | 10.0 | 17.0 | 0.00 | 0.00 | 0.00 | 37 | 1015.2 |
| 20260502184030 | 60 | 288 | 11.0 | 24.0 | 0.00 | 0.00 | 0.00 | 38 | 1015.3 |
| 20260502183530 | 60 | 291 | 16.0 | 24.0 | 0.00 | 0.00 | 0.00 | 37 | 1015.4 |
| 20260502183030 | 60 | 248 | 10.0 | 19.0 | 0.00 | 0.00 | 0.00 | 36 | 1015.5 |
| 20260502182530 | 60 | 276 | 9.0 | 19.0 | 0.00 | 0.00 | 0.00 | 37 | 1015.6 |
| 20260502182028 | 60 | 267 | 8.0 | 16.0 | 0.00 | 0.00 | 0.00 | 36 | 1015.7 |
| 20260502181529 | 60 | 312 | 7.0 | 17.0 | 0.00 | 0.00 | 0.00 | 37 | 1015.7 |
| 20260502181026 | 59 | 280 | 6.0 | 11.0 | 0.00 | 0.00 | 0.00 | 37 | 1015.9 |
| 20260502180524 | 59 | 249 | 6.0 | 14.0 | 0.00 | 0.00 | 0.00 | 38 | 1016.0 |
| 20260502170509 | 56 | 264 | 7.0 | 16.0 | 0.00 | 0.00 | 0.00 | 39 | 1017.2 |
| 20260502164004 | 55 | 270 | 10.0 | 14.0 | 0.00 | 0.00 | 0.00 | 40 | 1017.5 |
| 20260502163503 | 55 | 290 | 7.0 | 15.0 | 0.00 | 0.00 | 0.00 | 39 | 1017.7 |
| 20260502163001 | 55 | 288 | 8.0 | 14.0 | 0.00 | 0.00 | 0.00 | 40 | 1017.7 |
| 20260502162601 | 54 | 291 | 6.0 | 14.0 | 0.00 | 0.00 | 0.00 | 42 | 1017.7 |
| 20260502162059 | 54 | 274 | 7.0 | 16.0 | 0.00 | 0.00 | 0.00 | 41 | 1017.9 |
| 20260502161600 | 53 | 271 | 10.0 | 16.0 | 0.00 | 0.00 | 0.00 | 42 | 1017.9 |
| 20260502161059 | 53 | 279 | 8.0 | 18.0 | 0.00 | 0.00 | 0.00 | 41 | 1018.0 |
| 20260502160558 | 53 | 260 | 9.0 | 18.0 | 0.00 | 0.00 | 0.00 | 42 | 1018.1 |
| 20260502152047 | 51 | 290 | 11.0 | 16.0 | 0.00 | 0.00 | 0.00 | 45 | 1018.7 |
| 20260502151551 | 51 | 283 | 7.0 | 16.0 | 0.00 | 0.00 | 0.00 | 47 | 1018.7 |
| 20260502151048 | 51 | 292 | 9.0 | 17.0 | 0.00 | 0.00 | 0.00 | 44 | 1018.8 |
| 20260502150544 | 51 | 278 | 12.0 | 17.0 | 0.00 | 0.00 | 0.00 | 46 | 1018.9 |
| 20260502130521 | 42 | 290 | 8.0 | 12.0 | 0.00 | 0.00 | 0.00 | 66 | 1019.6 |
| 20260502123518 | 41 | 288 | 4.0 | 8.0 | 0.00 | 0.00 | 0.00 | 69 | 1019.7 |
| 20260502123018 | 41 | 275 | 3.0 | 6.0 | 0.00 | 0.00 | 0.00 | 70 | 1019.6 |
| 20260502122518 | 40 | 302 | 3.0 | 6.0 | 0.00 | 0.00 | 0.00 | 70 | 1019.6 |
| 20260502122018 | 40 | 288 | 4.0 | 7.0 | 0.00 | 0.00 | 0.00 | 70 | 1019.7 |
| 20260502121534 | 40 | 287 | 5.0 | 7.0 | 0.00 | 0.00 | 0.00 | 71 | 1019.6 |
| 20260502121018 | 40 | 284 | 4.0 | 6.0 | 0.00 | 0.00 | 0.00 | 72 | 1019.6 |
| 20260502120519 | 40 | 287 | 4.0 | 6.0 | 0.00 | 0.00 | 0.00 | 72 | 1019.7 |
| 20260502115517 | 39 | 295 | 4.0 | 6.0 | 0.00 | 0.00 | 0.00 | 72 | 1019.7 |
| 20260502115017 | 39 | 298 | 4.0 | 7.0 | 0.00 | 0.00 | 0.00 | 71 | 1019.6 |
| 20260502114516 | 39 | 303 | 4.0 | 7.0 | 0.00 | 0.00 | 0.00 | 73 | 1019.6 |
| 20260502114017 | 38 | 288 | 4.0 | 8.0 | 0.00 | 0.00 | 0.00 | 74 | 1019.6 |
| 20260502113517 | 38 | 300 | 4.0 | 8.0 | 0.00 | 0.00 | 0.00 | 73 | 1019.6 |
| 20260502113116 | 38 | 298 | 3.0 | 6.0 | 0.00 | 0.00 | 0.00 | 75 | 1019.6 |
| 20260502112514 | 38 | 294 | 3.0 | 6.0 | 0.00 | 0.00 | 0.00 | 76 | 1019.5 |
| 20260502112016 | 38 | 276 | 3.0 | 7.0 | 0.00 | 0.00 | 0.00 | 78 | 1019.6 |
| 20260502111514 | 37 | 284 | 3.0 | 7.0 | 0.00 | 0.00 | 0.00 | 75 | 1019.5 |
| 20260502111013 | 37 | 280 | 2.0 | 6.0 | 0.00 | 0.00 | 0.00 | 74 | 1019.4 |
| 20260502110514 | 37 | 293 | 2.0 | 5.0 | 0.00 | 0.00 | 0.00 | 75 | 1019.5 |
| 20260502110016 | 37 | 290 | 3.0 | 5.0 | 0.00 | 0.00 | 0.00 | 75 | 1019.5 |
| 20260502105514 | 37 | 280 | 3.0 | 5.0 | 0.00 | 0.00 | 0.00 | 75 | 1019.5 |
| 20260502105016 | 37 | 287 | 3.0 | 4.0 | 0.00 | 0.00 | 0.00 | 75 | 1019.5 |
| 20260502104512 | 37 | 293 | 2.0 | 5.0 | 0.00 | 0.00 | 0.00 | 74 | 1019.5 |
| 20260502104012 | 37 | 294 | 2.0 | 5.0 | 0.00 | 0.00 | 0.00 | 74 | 1019.5 |
| 20260502103512 | 37 | 285 | 2.0 | 4.0 | 0.00 | 0.00 | 0.00 | 74 | 1019.5 |
| 20260502103012 | 37 | 290 | 2.0 | 4.0 | 0.00 | 0.00 | 0.00 | 73 | 1019.5 |
| 20260502102511 | 37 | 302 | 2.0 | 4.0 | 0.00 | 0.00 | 0.00 | 73 | 1019.5 |
| 20260502102012 | 37 | 287 | 2.0 | 4.0 | 0.00 | 0.00 | 0.00 | 73 | 1019.6 |
| 20260502101513 | 37 | 315 | 2.0 | 6.0 | 0.00 | 0.00 | 0.00 | 72 | 1019.5 |
| 20260502101011 | 37 | 291 | 2.0 | 7.0 | 0.00 | 0.00 | 0.00 | 73 | 1019.5 |
| 20260502100511 | 37 | 282 | 3.0 | 7.0 | 0.00 | 0.00 | 0.00 | 73 | 1019.5 |
| 20260502091506 | 38 | 295 | 3.0 | 6.0 | 0.00 | 0.00 | 0.00 | 72 | 1019.3 |
| 20260502091003 | 38 | 290 | 4.0 | 6.0 | 0.00 | 0.00 | 0.00 | 72 | 1019.4 |
| 20260502090503 | 38 | 290 | 3.0 | 6.0 | 0.00 | 0.00 | 0.00 | 73 | 1019.3 |
| 20260502071050 | 39 | 288 | 2.0 | 5.0 | 0.00 | 0.00 | 0.00 | 66 | 1019.6 |
| 20260502070550 | 39 | 284 | 3.0 | 5.0 | 0.00 | 0.00 | 0.00 | 68 | 1019.7 |
| 20260502070049 | 39 | 293 | 2.0 | 4.0 | 0.00 | 0.00 | 0.00 | 68 | 1019.7 |
| 20260502065548 | 39 | 290 | 2.0 | 4.0 | 0.00 | 0.00 | 0.00 | 68 | 1019.7 |
| 20260502065047 | 39 | 284 | 3.0 | 4.0 | 0.00 | 0.00 | 0.00 | 68 | 1019.7 |
| 20260502064546 | 39 | 291 | 1.0 | 3.0 | 0.00 | 0.00 | 0.00 | 68 | 1019.8 |
| 20260502064044 | 39 | 284 | 0.0 | 3.0 | 0.00 | 0.00 | 0.00 | 65 | 1019.8 |
| 20260502063543 | 39 | 281 | 1.0 | 3.0 | 0.00 | 0.00 | 0.00 | 64 | 1019.9 |
| 20260502063047 | 39 | 271 | 0.0 | 3.0 | 0.00 | 0.00 | 0.00 | 64 | 1019.9 |
| 20260502062543 | 39 | 269 | 1.0 | 2.0 | 0.00 | 0.00 | 0.00 | 63 | 1019.9 |
| 20260502062042 | 39 | 276 | 0.0 | 3.0 | 0.00 | 0.00 | 0.00 | 64 | 1019.8 |
| 20260502061542 | 40 | 266 | 1.0 | 3.0 | 0.00 | 0.00 | 0.00 | 63 | 1019.8 |
| 20260502061040 | 40 | 280 | 1.0 | 3.0 | 0.00 | 0.00 | 0.00 | 63 | 1019.8 |
| 20260502060540 | 40 | 277 | 0.0 | 2.0 | 0.00 | 0.00 | 0.00 | 62 | 1019.9 |
| 20260502060038 | 40 | 276 | 0.0 | 2.0 | 0.00 | 0.00 | 0.00 | 61 | 1019.8 |
| 20260502055539 | 40 | 261 | 1.0 | 3.0 | 0.00 | 0.00 | 0.00 | 61 | 1019.9 |
| 20260502055037 | 41 | 274 | 0.0 | 3.0 | 0.00 | 0.00 | 0.00 | 61 | 1019.8 |
| 20260502054541 | 41 | 270 | 1.0 | 3.0 | 0.00 | 0.00 | 0.00 | 61 | 1019.9 |
| 20260502054036 | 41 | 276 | 1.0 | 4.0 | 0.00 | 0.00 | 0.00 | 61 | 1019.8 |
| 20260502053532 | 42 | 266 | 1.0 | 5.0 | 0.00 | 0.00 | 0.00 | 61 | 1019.9 |
| 20260502053036 | 42 | 280 | 1.0 | 5.0 | 0.00 | 0.00 | 0.00 | 61 | 1019.9 |
| 20260502052530 | 42 | 281 | 3.0 | 5.0 | 0.00 | 0.00 | 0.00 | 58 | 1020.0 |
| 20260502052031 | 43 | 292 | 3.0 | 5.0 | 0.00 | 0.00 | 0.00 | 57 | 1020.0 |
| 20260502051527 | 43 | 271 | 2.0 | 5.0 | 0.00 | 0.00 | 0.00 | 55 | 1020.0 |
| 20260502051026 | 43 | 290 | 3.0 | 6.0 | 0.00 | 0.00 | 0.00 | 53 | 1020.0 |
| 20260502050527 | 43 | 290 | 3.0 | 6.0 | 0.00 | 0.00 | 0.00 | 53 | 1020.0 |
| 20260502050031 | 43 | 285 | 3.0 | 7.0 | 0.00 | 0.00 | 0.00 | 52 | 1020.0 |
| 20260502045525 | 43 | 288 | 4.0 | 7.0 | 0.00 | 0.00 | 0.00 | 52 | 1020.0 |
| 20260502045025 | 43 | 290 | 4.0 | 5.0 | 0.00 | 0.00 | 0.00 | 54 | 1020.0 |
| 20260502044525 | 43 | 287 | 2.0 | 5.0 | 0.00 | 0.00 | 0.00 | 56 | 1019.9 |
| 20260502044023 | 43 | 288 | 2.0 | 4.0 | 0.00 | 0.00 | 0.00 | 57 | 1019.9 |
| 20260502043523 | 43 | 298 | 3.0 | 5.0 | 0.00 | 0.00 | 0.00 | 55 | 1019.9 |
| 20260502043023 | 43 | 290 | 3.0 | 5.0 | 0.00 | 0.00 | 0.00 | 56 | 1019.9 |
| 20260502042524 | 43 | 284 | 2.0 | 4.0 | 0.00 | 0.00 | 0.00 | 59 | 1019.9 |
| 20260502042025 | 43 | 280 | 1.0 | 4.0 | 0.00 | 0.00 | 0.00 | 59 | 1019.9 |
| 20260502041523 | 43 | 264 | 0.0 | 5.0 | 0.00 | 0.00 | 0.00 | 58 | 1019.9 |
| 20260502041024 | 43 | 298 | 3.0 | 5.0 | 0.00 | 0.00 | 0.00 | 59 | 1020.0 |
| 20260502040525 | 43 | 297 | 3.0 | 5.0 | 0.00 | 0.00 | 0.00 | 57 | 1020.0 |
| 20260502040023 | 43 | 290 | 1.0 | 3.0 | 0.00 | 0.00 | 0.00 | 58 | 1019.9 |
| 20260502035523 | 43 | 281 | 0.0 | 2.0 | 0.00 | 0.00 | 0.00 | 60 | 1019.9 |
| 20260502035023 | 43 | 285 | 0.0 | 2.0 | 0.00 | 0.00 | 0.00 | 59 | 1019.9 |
| 20260502034523 | 43 | 273 | 0.0 | 2.0 | 0.00 | 0.00 | 0.00 | 58 | 1019.9 |
| 20260502034023 | 44 | 283 | 0.0 | 1.0 | 0.00 | 0.00 | 0.00 | 55 | 1019.9 |
| 20260502033522 | 44 | 280 | 0.0 | 1.0 | 0.00 | 0.00 | 0.00 | 55 | 1019.9 |
| 20260502033024 | 44 | 281 | 0.0 | 2.0 | 0.00 | 0.00 | 0.00 | 54 | 1019.9 |
| 20260502032520 | 44 | 271 | 0.0 | 2.0 | 0.00 | 0.00 | 0.00 | 55 | 1019.9 |
| 20260502032020 | 44 | 269 | 0.0 | 2.0 | 0.00 | 0.00 | 0.00 | 55 | 1019.8 |
| 20260502031522 | 44 | 281 | 0.0 | 2.0 | 0.00 | 0.00 | 0.00 | 54 | 1019.9 |
| 20260502031021 | 44 | 277 | 0.0 | 1.0 | 0.00 | 0.00 | 0.00 | 52 | 1019.9 |
| 20260502030521 | 44 | 276 | 0.0 | 1.0 | 0.00 | 0.00 | 0.00 | 51 | 1019.9 |
| 20260502030021 | 44 | 262 | 0.0 | 1.0 | 0.00 | 0.00 | 0.00 | 51 | 1019.9 |
| 20260502025520 | 44 | 260 | 0.0 | 1.0 | 0.00 | 0.00 | 0.00 | 50 | 1019.9 |
| 20260502025019 | 44 | 264 | 1.0 | 1.0 | 0.00 | 0.00 | 0.00 | 51 | 1019.9 |
| 20260502024520 | 44 | 269 | 0.0 | 0.0 | 0.00 | 0.00 | 0.00 | 52 | 1019.9 |
| 20260502024020 | 44 | 263 | 0.0 | 1.0 | 0.00 | 0.00 | 0.00 | 53 | 1019.9 |
| 20260502023519 | 45 | 257 | 0.0 | 1.0 | 0.00 | 0.00 | 0.00 | 54 | 1019.9 |
| 20260502023019 | 45 | 281 | 0.0 | 1.0 | 0.00 | 0.00 | 0.00 | 56 | 1019.9 |
| 20260502022518 | 45 | 281 | 0.0 | 1.0 | 0.00 | 0.00 | 0.00 | 54 | 1019.9 |
| 20260502022020 | 45 | 283 | 0.0 | 2.0 | 0.00 | 0.00 | 0.00 | 52 | 1019.9 |
| 20260502021518 | 45 | 276 | 0.0 | 2.0 | 0.00 | 0.00 | 0.00 | 51 | 1019.8 |
| 20260502021017 | 45 | 280 | 1.0 | 3.0 | 0.00 | 0.00 | 0.00 | 53 | 1019.8 |
| 20260502020517 | 45 | 285 | 2.0 | 3.0 | 0.00 | 0.00 | 0.00 | 53 | 1019.8 |
| 20260502020017 | 45 | 291 | 0.0 | 2.0 | 0.00 | 0.00 | 0.00 | 53 | 1019.6 |
| 20260502015520 | 45 | 278 | 0.0 | 2.0 | 0.00 | 0.00 | 0.00 | 49 | 1019.6 |
| 20260502015017 | 45 | 273 | 0.0 | 2.0 | 0.00 | 0.00 | 0.00 | 46 | 1019.6 |
| 20260502014526 | 46 | 276 | 0.0 | 1.0 | 0.00 | 0.00 | 0.00 | 45 | 1019.4 |